When you browse on this site, cookies collect data to enhance your experience and personalize the content and advertising you see.
Visit our Privacy Policy to learn more. By continuing to use the site, you agree to this use of cookies and data.
  • In Lithuania
  • List of Countries
  • For 7 days
  • Water Temperature
  • Satellite Maps
  • Weather Map
  • Weather Widgets
  • user-avatar
    Login

    Hourly Weather Severnyy

    Today, 21 May, Tuesday

    Time Temperature Precipitation Wind Pressure Humidity
    00:00 +4°C° 0.1 mm 4 mps 745 mmHg 88%
    01:00 +4°C° 0.1 mm 4 mps 745 mmHg 90%
    02:00 +4°C° 0.1 mm 3 mps 745 mmHg 91%
    03:00 +4°C° 0.3 mm 3 mps 746 mmHg 91%
    04:00 +4°C° 0.3 mm 3 mps 746 mmHg 91%
    05:00 +4°C° 0.3 mm 3 mps 746 mmHg 91%
    06:00 +5°C° 0.2 mm 3 mps 746 mmHg 88%
    07:00 +7°C° 0.2 mm 3 mps 746 mmHg 84%
    08:00 +7°C° 0.2 mm 3 mps 746 mmHg 81%
    09:00 +8°C° 0.1 mm 3 mps 747 mmHg 74%
    10:00 +9°C° 0.1 mm 3 mps 747 mmHg 67%
    11:00 +10°C° 0.1 mm 3 mps 747 mmHg 59%
    12:00 +10°C° 0.2 mm 4 mps 747 mmHg 58%
    13:00 +11°C° 0.2 mm 4 mps 747 mmHg 57%
    14:00 +11°C° 0.2 mm 4 mps 747 mmHg 56%
    15:00 +11°C° 0.2 mm 4 mps 748 mmHg 57%
    16:00 +10°C° 0.2 mm 4 mps 748 mmHg 59%
    17:00 +10°C° 0.2 mm 4 mps 748 mmHg 60%
    18:00 +8°C° 0 mm 4 mps 748 mmHg 61%
    19:00 +8°C° 0 mm 3 mps 748 mmHg 63%
    20:00 +7°C° 0 mm 3 mps 748 mmHg 64%
    21:00 +5°C° 0 mm 3 mps 749 mmHg 69%
    22:00 +5°C° 0 mm 2 mps 749 mmHg 73%
    23:00 +4°C° 0 mm 2 mps 749 mmHg 78%

    Tomorrow, 22 May, Wednesday

    Time Temperature Precipitation Wind Pressure Humidity
    00:00 +3°C° 0 mm 2 mps 749 mmHg 81%
    01:00 +3°C° 0 mm 2 mps 749 mmHg 84%
    02:00 +2°C° 0 mm 2 mps 750 mmHg 87%
    03:00 +1°C° 0 mm 3 mps 750 mmHg 82%
    04:00 +1°C° 0 mm 3 mps 750 mmHg 78%
    05:00 0°C° 0 mm 4 mps 750 mmHg 73%
    06:00 0°C° 0 mm 4 mps 751 mmHg 68%
    07:00 +1°C° 0 mm 4 mps 751 mmHg 63%
    08:00 +1°C° 0 mm 4 mps 751 mmHg 58%
    09:00 +3°C° 0 mm 4 mps 751 mmHg 54%
    10:00 +4°C° 0 mm 4 mps 751 mmHg 51%
    11:00 +4°C° 0 mm 4 mps 751 mmHg 47%
    12:00 +6°C° 0 mm 4 mps 751 mmHg 43%
    13:00 +7°C° 0 mm 4 mps 751 mmHg 39%
    14:00 +8°C° 0 mm 4 mps 751 mmHg 36%
    15:00 +8°C° 0 mm 4 mps 751 mmHg 33%
    16:00 +10°C° 0 mm 4 mps 751 mmHg 31%
    17:00 +9°C° 0 mm 5 mps 751 mmHg 28%
    18:00 +8°C° 0 mm 4 mps 751 mmHg 32%
    19:00 +8°C° 0 mm 3 mps 751 mmHg 36%
    20:00 +7°C° 0 mm 2 mps 751 mmHg 40%
    21:00 +6°C° 0 mm 2 mps 751 mmHg 43%
    22:00 +5°C° 0 mm 2 mps 752 mmHg 46%
    23:00 +3°C° 0 mm 2 mps 752 mmHg 49%

    Day after tomorrow, 23 May, Thursday

    Time Temperature Precipitation Wind Pressure Humidity
    00:00 +4°C° 0 mm 1 mps 752 mmHg 51%
    01:00 +3°C° 0 mm 1 mps 752 mmHg 54%
    02:00 +2°C° 0 mm 1 mps 752 mmHg 56%
    03:00 +2°C° 0 mm 0 mps 753 mmHg 54%
    04:00 +3°C° 0 mm 0 mps 753 mmHg 52%
    05:00 +3°C° 0 mm 0 mps 753 mmHg 50%
    06:00 +5°C° 0 mm 0 mps 753 mmHg 45%
    07:00 +8°C° 0 mm 1 mps 753 mmHg 41%
    08:00 +9°C° 0 mm 1 mps 754 mmHg 36%
    09:00 +10°C° 0 mm 1 mps 753 mmHg 34%
    10:00 +11°C° 0 mm 1 mps 753 mmHg 32%
    11:00 +13°C° 0 mm 1 mps 753 mmHg 30%
    12:00 +13°C° 0 mm 1 mps 753 mmHg 29%
    13:00 +14°C° 0 mm 1 mps 753 mmHg 28%
    14:00 +14°C° 0 mm 1 mps 753 mmHg 27%
    15:00 +14°C° 0 mm 2 mps 752 mmHg 27%
    16:00 +14°C° 0 mm 2 mps 752 mmHg 28%
    17:00 +14°C° 0 mm 2 mps 752 mmHg 28%
    18:00 +13°C° 0 mm 2 mps 752 mmHg 33%
    19:00 +13°C° 0 mm 2 mps 752 mmHg 37%
    20:00 +12°C° 0 mm 2 mps 752 mmHg 41%
    21:00 +9°C° 0 mm 2 mps 752 mmHg 46%
    22:00 +8°C° 0 mm 2 mps 752 mmHg 51%
    23:00 +7°C° 0 mm 3 mps 751 mmHg 56%

    24 May, Friday

    Time Temperature Precipitation Wind Pressure Humidity
    00:00 +5°C° 0 mm 3 mps 751 mmHg 58%
    01:00 +5°C° 0 mm 3 mps 751 mmHg 60%
    02:00 +4°C° 0 mm 3 mps 750 mmHg 63%
    03:00 +5°C° 0 mm 4 mps 750 mmHg 62%
    04:00 +6°C° 0 mm 4 mps 749 mmHg 61%
    05:00 +6°C° 0 mm 5 mps 749 mmHg 61%
    06:00 +8°C° 0 mm 6 mps 748 mmHg 57%
    07:00 +9°C° 0 mm 7 mps 747 mmHg 53%
    08:00 +11°C° 0 mm 8 mps 746 mmHg 49%
    09:00 +10°C° 0.3 mm 8 mps 745 mmHg 56%
    10:00 +9°C° 0.3 mm 8 mps 744 mmHg 63%
    11:00 +9°C° 0.3 mm 8 mps 743 mmHg 70%
    12:00 +9°C° 0.1 mm 8 mps 743 mmHg 74%
    13:00 +8°C° 0.1 mm 7 mps 743 mmHg 79%
    14:00 +8°C° 0.1 mm 6 mps 743 mmHg 83%
    15:00 +9°C° 0.2 mm 5 mps 743 mmHg 83%
    16:00 +10°C° 0.2 mm 4 mps 743 mmHg 82%
    17:00 +11°C° 0.2 mm 3 mps 743 mmHg 81%
    18:00 +10°C° 0 mm 3 mps 743 mmHg 80%
    19:00 +9°C° 0 mm 3 mps 743 mmHg 78%
    20:00 +9°C° 0 mm 3 mps 743 mmHg 77%
    21:00 +7°C° 0 mm 3 mps 744 mmHg 76%
    22:00 +5°C° 0 mm 3 mps 744 mmHg 76%
    23:00 +4°C° 0 mm 3 mps 745 mmHg 75%

    25 May, Saturday

    Time Temperature Precipitation Wind Pressure Humidity
    00:00 +3°C° 0 mm 3 mps 745 mmHg 75%
    01:00 +4°C° 0 mm 2 mps 745 mmHg 75%
    02:00 +3°C° 0 mm 2 mps 746 mmHg 74%
    03:00 +4°C° 0 mm 2 mps 746 mmHg 71%
    04:00 +4°C° 0 mm 2 mps 746 mmHg 68%
    05:00 +4°C° 0 mm 2 mps 746 mmHg 65%
    06:00 +5°C° 0 mm 3 mps 746 mmHg 56%
    07:00 +6°C° 0 mm 4 mps 746 mmHg 46%
    08:00 +7°C° 0 mm 4 mps 746 mmHg 37%
    09:00 +8°C° 0 mm 4 mps 746 mmHg 35%
    10:00 +8°C° 0 mm 4 mps 746 mmHg 33%
    11:00 +8°C° 0 mm 4 mps 746 mmHg 31%
    12:00 +10°C° 0 mm 4 mps 746 mmHg 31%
    13:00 +10°C° 0 mm 4 mps 746 mmHg 31%
    14:00 +10°C° 0 mm 4 mps 746 mmHg 32%
    15:00 +10°C° 0 mm 3 mps 746 mmHg 33%
    16:00 +10°C° 0 mm 3 mps 747 mmHg 34%
    17:00 +10°C° 0 mm 3 mps 747 mmHg 35%
    18:00 +9°C° 0.1 mm 2 mps 747 mmHg 42%
    19:00 +8°C° 0.1 mm 2 mps 747 mmHg 50%
    20:00 +7°C° 0.1 mm 2 mps 747 mmHg 58%
    21:00 +6°C° 0 mm 2 mps 747 mmHg 62%
    22:00 +5°C° 0 mm 2 mps 747 mmHg 66%
    23:00 +4°C° 0 mm 2 mps 747 mmHg 70%

    26 May, Sunday

    Time Temperature Precipitation Wind Pressure Humidity
    00:00 +3°C° 0 mm 2 mps 747 mmHg 72%
    01:00 +2°C° 0 mm 2 mps 747 mmHg 73%
    02:00 +2°C° 0 mm 2 mps 747 mmHg 75%
    03:00 +2°C° 0 mm 2 mps 748 mmHg 71%
    04:00 +2°C° 0 mm 3 mps 748 mmHg 68%
    05:00 +3°C° 0 mm 3 mps 748 mmHg 64%
    06:00 +4°C° 0.1 mm 4 mps 749 mmHg 61%
    07:00 +5°C° 0.1 mm 5 mps 749 mmHg 57%
    08:00 +5°C° 0.1 mm 6 mps 749 mmHg 54%
    09:00 +5°C° 0.1 mm 7 mps 750 mmHg 54%
    10:00 +5°C° 0.1 mm 7 mps 751 mmHg 54%
    11:00 +4°C° 0.1 mm 8 mps 751 mmHg 54%
    12:00 +4°C° 0.1 mm 8 mps 752 mmHg 53%
    13:00 +4°C° 0.1 mm 8 mps 753 mmHg 53%
    14:00 +4°C° 0.1 mm 8 mps 754 mmHg 52%
    15:00 +4°C° 0 mm 8 mps 755 mmHg 51%
    16:00 +4°C° 0 mm 8 mps 755 mmHg 51%
    17:00 +4°C° 0 mm 8 mps 756 mmHg 50%
    18:00 +4°C° 0 mm 6 mps 756 mmHg 50%
    19:00 +3°C° 0 mm 5 mps 756 mmHg 51%
    20:00 +4°C° 0 mm 4 mps 757 mmHg 52%
    21:00 +3°C° 0 mm 4 mps 757 mmHg 54%
    22:00 +3°C° 0 mm 3 mps 757 mmHg 56%
    23:00 +3°C° 0 mm 3 mps 758 mmHg 59%
    Show more